Date String (YYYY-MM-DD hh:mm:ss) UTC,Instrument flags,Ambient pressure (hPa),Sample flow (lpm),Bypass flow (lpm),Sample temperature (°C),Ambient temperature (°C),ASC tube jacket temperature (°C),LED temperature (°C),Box temperature (°C),Sample RH (%),Span deviation,Mass concentration (μg/m³),Mass concentration (μg/m³),Mass concentration (μg/m³)
DateTimeUTC,F1_M11,P_M11,Q1_M11,Q2_M11,T1_M11,T2_M11,T3_M11,T4_M11,T5_M11,U1_M11,ZSPAN_M11,X0_M11,X2_M11,X1_M11
2023-01-17 07:00:00,,0814.3,5.00,0.00,22.7,21.5,00.0,31.6,24.5,15.1,-000.4,0023.31,0016.29,0015.24
2023-01-17 07:01:00,,0814.2,5.00,0.00,22.7,21.4,00.0,31.6,24.5,15.1,-000.4,0023.52,0016.36,0015.30
2023-01-17 07:02:00,,0814.0,5.00,0.00,22.7,21.4,00.0,31.6,24.5,15.2,-000.2,0023.39,0016.34,0015.32
2023-01-17 07:03:00,,0813.6,5.00,0.00,22.7,21.4,00.0,31.6,24.5,15.1,-000.5,0023.37,0016.27,0015.33
2023-01-17 07:04:00,,0813.6,5.00,0.00,22.7,21.4,00.0,31.6,24.5,15.1,-000.8,0023.46,0016.25,0015.33
2023-01-17 07:05:00,,0813.5,4.99,0.00,22.7,21.3,00.0,31.6,24.5,15.1,-000.9,0023.51,0016.25,0015.35
2023-01-17 07:06:00,,0813.5,5.01,0.00,22.7,21.3,00.0,31.6,24.5,15.1,-001.1,0023.94,0016.25,0015.36
2023-01-17 07:07:00,,0813.5,5.00,0.00,22.7,21.3,00.0,31.6,24.5,15.1,-001.4,0024.43,0016.27,0015.35
2023-01-17 07:08:00,,0813.5,5.01,0.00,22.7,21.3,00.0,31.6,24.5,15.1,-001.8,0025.05,0016.29,0015.36
2023-01-17 07:09:00,,0813.5,4.99,0.00,22.7,21.3,00.0,31.6,24.5,15.0,-001.9,0024.40,0016.33,0015.34
2023-01-17 07:10:00,,0813.6,5.00,0.00,22.7,21.3,00.0,31.5,24.5,15.0,-001.9,0024.37,0016.37,0015.33
2023-01-17 07:11:00,,0813.5,5.00,0.00,22.7,21.3,00.0,31.5,24.5,15.0,-002.0,0024.48,0016.40,0015.31
2023-01-17 07:12:00,,0813.5,5.02,0.00,22.7,21.3,00.0,31.5,24.5,14.9,-002.3,0025.17,0016.31,0015.19
2023-01-17 07:13:00,,0813.5,5.01,0.00,22.7,21.3,00.0,31.5,24.4,14.9,-002.5,0026.27,0016.27,0015.10
2023-01-17 07:14:00,,0813.5,5.02,0.00,22.7,21.2,00.0,31.5,24.4,14.8,-002.5,0026.29,0016.18,0014.96
2023-01-17 07:15:00,,0813.5,4.99,0.00,22.6,21.2,00.0,31.5,24.4,14.8,-002.6,0027.21,0016.02,0014.79
2023-01-17 07:16:00,,0813.5,4.99,0.00,22.6,21.2,00.0,31.5,24.4,14.8,-002.5,0028.27,0015.91,0014.61
2023-01-17 07:17:00,,0813.4,5.01,0.00,22.6,21.2,00.0,31.5,24.4,14.8,-002.1,0028.04,0015.87,0014.50
2023-01-17 07:18:00,,0813.5,5.00,0.00,22.6,21.2,00.0,31.5,24.4,14.9,-002.0,0028.72,0015.97,0014.56
2023-01-17 07:19:00,,0813.5,5.00,0.00,22.6,21.2,00.0,31.5,24.4,14.9,-002.0,0028.51,0015.97,0014.55
2023-01-17 07:20:00,,0813.5,4.99,0.00,22.6,21.1,00.0,31.5,24.4,15.0,-002.0,0028.47,0016.08,0014.63
2023-01-17 07:21:00,,0813.6,4.99,0.00,22.6,21.1,00.0,31.5,24.3,15.0,-002.0,0028.83,0016.31,0014.85
2023-01-17 07:22:00,,0813.6,5.00,0.00,22.6,21.1,00.0,31.5,24.3,15.1,-002.1,0029.12,0016.56,0015.10
2023-01-17 07:23:00,,0813.6,4.99,0.00,22.6,21.1,00.0,31.5,24.3,15.1,-002.1,0029.51,0016.86,0015.41
2023-01-17 07:24:00,,0814.0,5.01,0.00,22.5,21.1,00.0,31.5,24.3,15.2,-002.1,0028.86,0017.09,0015.66
2023-01-17 07:25:00,,0814.1,5.01,0.00,22.5,21.1,00.0,31.4,24.3,15.3,-001.9,0028.73,0017.37,0016.00
2023-01-17 07:26:00,,0814.2,5.00,0.00,22.5,21.1,00.0,31.4,24.3,15.3,-001.9,0028.32,0017.77,0016.40
2023-01-17 07:27:00,,0814.3,4.99,0.00,22.5,21.1,00.0,31.4,24.3,15.4,-001.9,0027.25,0018.17,0016.86
2023-01-17 07:28:00,,0814.2,5.00,0.00,22.5,21.0,00.0,31.4,24.3,15.4,-002.0,0027.01,0018.51,0017.30
2023-01-17 07:29:00,,0814.0,5.00,0.00,22.5,21.0,00.0,31.4,24.3,15.4,-002.0,0026.39,0018.64,0017.49
2023-01-17 07:30:00,,0813.9,5.00,0.00,22.5,21.0,00.0,31.4,24.2,15.4,-002.0,0025.85,0018.82,0017.68
2023-01-17 07:31:00,,0813.9,5.01,0.00,22.5,21.0,00.0,31.4,24.1,15.4,-001.8,0025.96,0018.89,0017.78
2023-01-17 07:32:00,,0813.9,5.01,0.00,22.5,21.5,00.0,31.4,24.3,15.4,-001.7,0026.05,0018.78,0017.68
2023-01-17 07:33:00,,0813.9,4.99,0.00,22.6,22.3,00.0,31.4,24.5,15.3,-001.8,0026.09,0018.63,0017.53
2023-01-17 07:34:00,,0813.9,5.00,0.00,22.7,22.7,00.0,31.4,24.7,15.2,-001.8,0025.72,0018.48,0017.39
2023-01-17 07:35:00,,0813.9,4.97,0.00,22.7,22.3,00.0,31.4,24.7,15.1,-001.8,0025.82,0018.36,0017.31
2023-01-17 07:36:00,,0813.9,5.00,0.00,22.7,22.0,00.0,31.4,24.6,15.1,-001.9,0025.97,0018.31,0017.20
2023-01-17 07:37:00,,0813.9,4.99,0.00,22.7,21.8,00.0,31.5,24.5,15.1,-001.8,0026.38,0018.20,0017.08
2023-01-17 07:38:00,,0813.9,5.00,0.00,22.7,21.6,00.0,31.5,24.5,15.0,-001.7,0026.84,0018.09,0016.91
2023-01-17 07:39:00,,0813.9,4.99,0.00,22.7,21.5,00.0,31.5,24.4,15.0,-001.6,0027.53,0017.95,0016.70
2023-01-17 07:40:00,,0813.9,5.00,0.00,22.7,21.4,00.0,31.5,24.4,15.1,-001.5,0028.50,0017.87,0016.59
2023-01-17 07:41:00,,0814.0,5.00,0.00,22.6,21.2,00.0,31.5,24.4,15.1,-001.6,0028.57,0017.83,0016.55
2023-01-17 07:42:00,,0813.9,5.01,0.00,22.6,21.2,00.0,31.5,24.4,15.1,-001.8,0028.46,0017.84,0016.57
2023-01-17 07:43:00,,0813.9,5.01,0.00,22.6,21.1,00.0,31.5,24.3,15.1,-002.2,0028.63,0017.91,0016.62
2023-01-17 07:44:00,,0813.9,5.00,0.00,22.6,21.1,00.0,31.5,24.3,15.0,-002.0,0028.65,0017.97,0016.69
2023-01-17 07:45:00,,0813.9,5.00,0.00,22.6,21.1,00.0,31.5,24.3,15.0,-002.0,0028.46,0018.10,0016.82
2023-01-17 07:46:00,,0813.9,5.00,0.00,22.6,21.1,00.0,31.5,24.3,15.1,-002.2,0028.27,0018.22,0016.93
2023-01-17 07:47:00,,0813.9,5.00,0.00,22.5,21.1,00.0,31.5,24.3,15.1,-002.1,0028.38,0018.26,0017.05
2023-01-17 07:48:00,,0814.2,5.00,0.00,22.5,21.0,00.0,31.5,24.3,15.2,-002.1,0028.85,0018.36,0017.21
2023-01-17 07:49:00,,0814.0,5.01,0.00,22.5,21.0,00.0,31.4,24.3,15.2,-002.3,0028.31,0018.55,0017.45
2023-01-17 07:50:00,,0814.0,5.01,0.00,22.5,21.0,00.0,31.4,24.2,15.1,-002.4,0028.56,0018.67,0017.58
2023-01-17 07:51:00,,0814.0,4.99,0.00,22.5,20.9,00.0,31.4,24.2,15.1,-002.4,0028.30,0018.74,0017.66
2023-01-17 07:52:00,,0814.0,5.00,0.00,22.4,20.8,00.0,31.4,24.1,15.0,-002.5,0028.42,0018.81,0017.74
2023-01-17 07:53:00,,0813.9,4.99,0.00,22.4,20.8,00.0,31.4,24.1,15.1,-002.4,0028.29,0018.86,0017.82
2023-01-17 07:54:00,,0813.9,5.00,0.00,22.4,20.9,00.0,31.4,24.2,15.2,-002.3,0029.25,0018.98,0018.01
2023-01-17 07:55:00,,0813.9,5.00,0.00,22.5,21.7,00.0,31.3,24.3,15.2,-002.3,0029.58,0019.21,0018.28
2023-01-17 07:56:00,,0813.9,5.01,0.00,22.6,22.6,00.0,31.3,24.6,15.1,-002.1,0029.74,0019.36,0018.43
2023-01-17 07:57:00,,0813.9,5.01,0.00,22.7,22.9,00.0,31.4,24.7,15.0,-001.8,0029.57,0019.49,0018.56
2023-01-17 07:58:00,,0813.9,4.99,0.00,22.7,22.6,00.0,31.4,24.7,15.0,-001.7,0030.16,0019.70,0018.70
2023-01-17 07:59:00,,0813.8,4.99,0.00,22.7,22.3,00.0,31.5,24.6,15.0,-001.8,0030.63,0019.86,0018.83
